Regional Weather Roundup
Issued by NWS

Home | Current Version | Previous Version | Graphics & Text | Print | Product List | Glossary On
Versions: 1 2 3 4 5 6 7 8 9 10 11 12 13 14 15 16 17 18 19 20 21 22 23 24 25 26 27 28 29 30 31 32 33 34 35 36 37 38 39 40 41 42 43 44 45 46 47 48 49 50
000
ASUS43 KMKX 300621
RWRWI

WISCONSIN REGIONAL WEATHER ROUNDUP
NATIONAL WEATHER SERVICE MILWAUKEE/SULLIVAN WI
100 AM CDT SAT APR 30 2016

NOTE: "FAIR" INDICATES FEW OR NO CLOUDS BELOW 12,000 FEET WITH NO
SIGNIFICANT WEATHER AND/OR OBSTRUCTIONS TO VISIBILITY.

WIZ001-002-006>008-014>016-023>028-300700-
NORTHWEST WISCONSIN

CITY           SKY/WX    TMP DP  RH WIND       PRES   REMARKS
SUPERIOR ARPT  CLEAR     37  32  84 E7        30.23R WCI  31
6HR MIN TEMP:  36; 6HR MAX TEMP:  42;

ASHLAND        CLEAR     32  31  96 E3        30.23R
6HR MIN TEMP:  31; 6HR MAX TEMP:  47;

HAYWARD        CLEAR     35  27  72 NE7       30.18R WCI  29
6HR MIN TEMP:  35; 6HR MAX TEMP:  52;

SIREN          CLEAR     40  30  66 NE7       30.18R
6HR MIN TEMP:  40; 6HR MAX TEMP:  58;

CUMBERLAND     CLEAR     39  30  70 NE6       30.15S WCI  35
RICE LAKE      CLEAR     42  32  68 N5        30.17R
6HR MIN TEMP:  42; 6HR MAX TEMP:  57;

CHETEK         CLEAR     44  31  59 NE5       30.15S
6HR MIN TEMP:  44; 6HR MAX TEMP:  57;

LADYSMITH      CLEAR     41  31  67 NE6       30.17R
6HR MIN TEMP:  42; 6HR MAX TEMP:  56;

EAU CLAIRE     MOCLDY    46  34  62 NE7       30.12S
6HR MIN TEMP:  42; 6HR MAX TEMP:  56;

MENOMONIE      CLOUDY    47  34  60 N7        30.13F
6HR MIN TEMP:  44; 6HR MAX TEMP:  59;

NEW RICHMOND   CLOUDY    43  33  67 NE8       30.14F
6HR MIN TEMP:  43; 6HR MAX TEMP:  57;

OSCEOLA        CLEAR     45  32  61 NE6       30.17F
6HR MIN TEMP:  45; 6HR MAX TEMP:  60;

$$

WIZ003>005-009-010-017-018-300700-
NORTH CENTRAL WISCONSIN

CITY           SKY/WX    TMP DP  RH WIND       PRES   REMARKS
MANITOWISH WTR PTCLDY    38  30  73 CALM      30.18R
6HR MIN TEMP:  37; 6HR MAX TEMP:  51;

ARBOR VITAE    CLEAR     42  30  63 E3        30.17R
6HR MIN TEMP:  42; 6HR MAX TEMP:  57;

WOODRUFF       CLEAR     42  30  63 E3        30.17R
6HR MIN TEMP:  42; 6HR MAX TEMP:  57;

RHINELANDER    CLEAR     39  29  67 NE5       30.17R
6HR MIN TEMP:  38; 6HR MAX TEMP:  55;

EAGLE RIVER    CLEAR     36  28  73 CALM      30.17R
LAND O LAKES   CLEAR     32  29  88 CALM      30.19R
6HR MIN TEMP:  32; 6HR MAX TEMP:  55;

PHILLIPS       CLEAR     36  30  78 CALM      30.16R
6HR MIN TEMP:  37; 6HR MAX TEMP:  54;

TOMAHAWK       CLEAR     35  32  90 CALM      30.16R
6HR MIN TEMP:  34; 6HR MAX TEMP:  54;

MEDFORD        CLEAR     37  34  89 NE3       30.13S
6HR MIN TEMP:  36; 6HR MAX TEMP:  52;

MERRILL        CLEAR    N/A N/A N/A NE7       30.15F
$$

WIZ029-030-035-036-043>047-300700-
CENTRAL WISCONSIN

CITY           SKY/WX    TMP DP  RH WIND       PRES   REMARKS
WAUSAU         CLEAR     41  34  76 E3        30.13S
6HR MIN TEMP:  39; 6HR MAX TEMP:  57;

MOSINEE        CLEAR     37  32  81 E6        30.15S WCI  33
MARSHFIELD     CLOUDY    42  34  73 E6        30.12S
6HR MIN TEMP:  42; 6HR MAX TEMP:  55;

STEVENS POINT  CLEAR     34  31  89 NE5       30.14F WCI  30
6HR MIN TEMP:  33; 6HR MAX TEMP:  52;

WAUPACA        CLEAR     39  34  81 N5        30.15S
6HR MIN TEMP:  40; 6HR MAX TEMP:  56;

WAUTOMA        MOCLDY    36  33  89 CALM      30.14F
6HR MIN TEMP:  35; 6HR MAX TEMP:  55;

WISC RAPIDS    CLOUDY    43  32  65 NE6       30.13F
6HR MIN TEMP:  42; 6HR MAX TEMP:  55;

CAMP DOUGLAS   CLOUDY    37  37 100 E3        30.12R
6HR MIN TEMP:  35; 6HR MAX TEMP:  53;

$$

WIZ011>013-019>022-031-037>040-048>050-300700-
NORTHEAST WISCONSIN

CITY           SKY/WX    TMP DP  RH WIND       PRES   REMARKS
ANTIGO         CLEAR     35  31  85 NE5       30.16S WCI  31
6HR MIN TEMP:  34; 6HR MAX TEMP:  51;

SHAWANO        CLEAR     41  37  84 CALM      30.16S
6HR MIN TEMP:  41; 6HR MAX TEMP:  54;

OCONTO         PTCLDY    36  35  96 CALM      30.17S
6HR MIN TEMP:  36; 6HR MAX TEMP:  50;

STURGEON BAY   CLEAR     41  27  56 N6        30.18S
6HR MIN TEMP:  39; 6HR MAX TEMP:  50;

GREEN BAY      CLEAR     38  34  85 SW6       30.15S WCI  33
6HR MIN TEMP:  38; 6HR MAX TEMP:  53;

MANITOWOC      CLEAR     38  31  76 MISG      30.14F
6HR MIN TEMP:  38; 6HR MAX TEMP:  50;

APPLETON       CLEAR     43  28  56 NE5       30.13F
CLINTONVILLE   MOCLDY    37  30  75 CALM      30.16R
OSHKOSH        CLOUDY    43  31  62 E3        30.13F
6HR MIN TEMP:  38; 6HR MAX TEMP:  53;

$$

WIZ032>034-041-042-053>061-300700-
SOUTHWEST WISCONSIN

CITY           SKY/WX    TMP DP  RH WIND       PRES   REMARKS
LA CROSSE      PTCLDY    43  38  82 E3        30.11R
6HR MIN TEMP:  42; 6HR MAX TEMP:  53;

SPARTA         CLOUDY    35  35 100 CALM      30.13R
6HR MIN TEMP:  35; 6HR MAX TEMP:  52;

VIROQUA        PTCLDY    42  37  81 E7        30.10S
6HR MIN TEMP:  40; 6HR MAX TEMP:  50;

BOSCOBEL       CLOUDY    38  36  92 CALM      30.11R
6HR MIN TEMP:  38; 6HR MAX TEMP:  53;

PRAIRIE DU CHI CLOUDY    41  37  87 CALM      30.09F
6HR MIN TEMP:  40; 6HR MAX TEMP:  51;

PLATTEVILLE    CLOUDY    41  39  91 E5        30.10R
6HR MIN TEMP:  41; 6HR MAX TEMP:  49;

$$

WIZ056-057-062-063-064-067-068-300700-
SOUTH CENTRAL WISCONSIN

CITY           SKY/WX    TMP DP  RH WIND       PRES   REMARKS
REEDSBURG      CLOUDY    40  35  83 CALM      30.12R
6HR MIN TEMP:  40; 6HR MAX TEMP:  52;

BARABOO/DELLS  CLOUDY    42  34  74 E6        30.12R
6HR MIN TEMP:  40; 6HR MAX TEMP:  51;

LONE ROCK      CLOUDY    42  37  82 SE5       30.13R
6HR MIN TEMP:  38; 6HR MAX TEMP:  51;

MINERAL POINT  CLOUDY    43  37  81 E7        30.10R
MADISON        CLOUDY    42  36  79 E6        30.11R
6HR MIN TEMP:  39; 6HR MAX TEMP:  51;

MIDDLETON      CLOUDY    44  37  76 E6        30.11S
6HR MIN TEMP:  42; 6HR MAX TEMP:  52;

WATERTOWN      CLOUDY    41  34  76 E5        30.11S
6HR MIN TEMP:  38; 6HR MAX TEMP:  49;

MONROE         CLOUDY    39  37  93 E5        30.10R
JANESVILLE     CLOUDY    43  41  93 E7        30.10S
$$

WIZ051-052-058>065-066-070>072-300700-
SOUTHEAST WISCONSIN

CITY           SKY/WX    TMP DP  RH WIND       PRES   REMARKS
MILWAUKEE      CLOUDY    43  32  65 NE3       30.13F
6HR MIN TEMP:  39; 6HR MAX TEMP:  43;

WAUKESHA       CLOUDY    39  32  75 E5        30.13S
MILWAUKEE/TIMM CLOUDY    41  30  65 CALM      30.14R
RACINE         CLOUDY    44  30  57 E8        30.14S
6HR MIN TEMP:  40; 6HR MAX TEMP:  45;

BURLINGTON     CLOUDY    41  35  78 E5        30.12S
6HR MIN TEMP:  40; 6HR MAX TEMP:  47;

KENOSHA        CLOUDY    43  35  73 E7        30.12S
6HR MIN TEMP:  41; 6HR MAX TEMP:  46;

FOND DU LAC    PTCLDY    38  29  70 E3        30.13F
6HR MIN TEMP:  38; 6HR MAX TEMP:  53;

SHEBOYGAN      CLEAR     34  29  82 N3        30.13F
6HR MIN TEMP:  34; 6HR MAX TEMP:  47;

WEST BEND      CLOUDY    34  30  86 CALM      30.13F
JUNEAU         CLOUDY    39  29  67 NE5       30.13F
6HR MIN TEMP:  38; 6HR MAX TEMP:  51;

$$

LSZ147-162-300700-
LAKE SUPERIOR

STATION/POSITION TIME  TEMP    WIND        PRES    WAVE
                       AIR SEA DIR/SP/G            HT/PER
                 (UTC) (F)     (DEG/KT/KT) (MB)    (FT/S)
W MID LAKE BUOY  0550   39 36   40/ 10/ 12 1024.6F   1
DEVILS ISLAND    0600   39      50/ 11/ 11 1024.7R
SAXON HARBOR     0500   31     200/  2/  3 1022.7F
$$

LMZ867-665-643>646-300700-
LAKE MICHIGAN

STATION/POSITION TIME  TEMP    WIND        PRES    WAVE
                       AIR SEA DIR/SP/G            HT/PER
                 (UTC) (F)     (DEG/KT/KT) (MB)    (FT/S)
CHAMBERS ISLAND  0500   44      20/  9C1F1C2F2C3F3C4F4C5F5C6F6C7F7C8M1C9M2Ca!



USA.gov is the U.S. government's official web portal to all federal, state and local government web resources and services.